ATLAS 5 CENTAUR DEB, 44687

Orbit data source: Space-Track

ATLAS 5 CENTAUR DEB, 44687 is space debris in HEO originally from a launch on Wed, 17 Oct 2018 UTC launched from the Air Force Eastern Test Range (AFETR). Debris objects in space refer to the collection of defunct objects orbiting the Earth. Examples of debris include non-operational satellites, rocket bodies, and fragments generated from explosions, collisions, or faulty payload assembly.

Loading next visibility...
Identifier
44687, 2018-079AZ
Orbit
HEO
Country
Flag of USUS
Related business
Flag of USUnited Launch Alliance/Lockheed Martin (US)
Manufacturer
ULA Decatur
Mission
Spacecraft
Bus & Motor
Unknown
Mass
Unknown
Launch date (UTC)
2018-10-17 (8 years ago)
Launch vehicle
Unknown
Launch site
Air Force Eastern Test Range (AFETR)
Object type
Payload
Rocket body
Debris
Shape & HBR
Unknown shape, 1.1 m
Radar Cross Section
RCS unknown

Expand to show TLE details & history
Last TLE update: 3 days ago

TLE from 3 days ago
0 ATLAS 5 CENTAUR DEB
1 44687U 18079AZ  26125.75819731 -.00000126  00000-0  00000-0 0  9991
2 44687  13.1985  41.7141 4626200 303.6167  20.5272  1.82180053 45388
Epoch: 2026-05-05T18:11Z
TLE epoch observation values (Epoch: 2026-05-05T18:11:48.247Z)
Latitude
0.00001°
Longitude
-94.93435°
Altitude
11,345.381 km
Speed
5.559 km/s
True Right ascension
02h 46m 34s
True Declination
0° 00' 00"
Sunlit
Object was in daylight at epoch
Visualization orbit readout
Latitude
Unknown
Longitude
Unknown
Altitude
Unknown
Speed
Unknown
Apparent Right ascension
Unknown
Apparent Declination
Unknown
Sunlit
N/A
Visualization observer readout
Local Sidereal Time
23:48:53
Azimuth
Unknown
Elevation
Unknown
Doppler factor
Unknown
Orbital elements
Apogee altitude
35,043.884 km
Perigee altitude
8,840.693 km
Semi-major axis
28,320.426 km
Eccentricity
0.46262
Inclination
13.1985°
RAAN
41.7141°
Arg. of periapsis
303.6167°
True anomaly
56.62887°
Mean anomaly
20.5272°
Eccentric anomaly
36.17111°
Mean motion
0.4554 °/min
Orbital period
790.51 mins
BSTAR
0
Loading maneuver chart data...
Computing Atmospheric mass density...

Documentation

Showing up to 5 results
|